EDT,Max TemperatureF,Mean TemperatureF,Min TemperatureF,Max Dew PointF,MeanDew PointF,Min DewpointF,Max Humidity, Mean Humidity, Min Humidity, Max Sea Level PressureIn, Mean Sea Level PressureIn, Min Sea Level PressureIn, Max VisibilityMiles, Mean VisibilityMiles, Min VisibilityMiles, Max Wind SpeedMPH, Mean Wind SpeedMPH, Max Gust SpeedMPH,PrecipitationIn, CloudCover, Events, WindDirDegrees
2010-10-1,,,,,,,,,,,,,,,,,,,,,,
2010-10-2,69,58,48,50,48,43,100,82,38,29.97,29.95,29.93,10,10,10,6,2,,0.00,0,,57
2010-10-3,68,56,44,50,46,43,100,76,40,30.00,29.97,29.93,10,9,2,14,4,20,0.00,1,,4
2010-10-4,66,58,51,52,48,45,100,75,49,30.15,30.10,30.05,10,10,10,12,5,18,0.00,6,,359
2010-10-5,66,55,44,52,44,36,100,73,35,30.21,30.17,30.11,10,9,0,12,4,20,0.00,4,,317
2010-10-6,69,56,42,43,40,39,93,63,33,30.15,30.06,29.94,10,10,10,10,3,18,0.00,2,,277
2010-10-7,80,62,44,50,45,41,100,61,28,30.00,29.96,29.88,10,10,10,12,4,18,0.00,0,,247
2010-10-8,75,58,41,52,45,37,100,66,27,30.15,30.08,30.03,10,10,4,7,1,,0.00,0,,143
2010-10-9,80,61,42,52,46,41,100,69,26,30.07,30.03,29.98,10,9,3,7,1,,0.00,0,,357
2010-10-10,82,64,46,55,49,46,100,70,28,30.04,30.00,29.92,10,8,3,6,1,,0.00,0,,318
2010-10-11,84,68,51,59,54,48,100,64,29,29.96,29.92,29.87,10,10,5,10,1,18,0.00,0,,216
2010-10-12,84,67,50,55,51,45,100,69,25,29.91,29.88,29.85,10,8,1,8,1,,0.00,0,,269
2010-10-13,73,66,60,57,53,48,82,62,47,30.02,29.97,29.90,10,10,10,8,2,,0.00,3,,14
2010-10-14,68,57,44,61,52,39,100,77,45,29.98,29.89,29.82,10,8,2,10,3,16,0.00,4,,246
2010-10-15,66,54,41,43,39,37,93,61,37,29.91,29.85,29.77,10,10,10,13,3,20,0.00,2,,260
2010-10-16,66,52,39,41,37,34,100,60,30,30.14,30.07,29.99,10,10,10,12,2,18,0.00,0,,301
2010-10-17,75,56,37,46,40,37,100,66,25,30.15,30.09,30.00,10,10,7,10,2,16,0.00,0,,246
2010-10-18,78,61,44,52,46,43,100,69,30,30.04,29.99,29.89,10,10,10,8,1,,0.00,0,,217
2010-10-19,71,58,46,55,51,46,100,85,53,29.94,29.90,29.86,10,9,0,6,1,,0.00,0,,24
2010-10-20,60,56,53,59,56,54,100,98,88,29.93,29.90,29.85,10,3,0,7,0,,0.10,8,,12
2010-10-21,75,60,46,54,45,37,100,69,27,29.89,29.83,29.75,10,6,0,17,3,25,0.00,2,,245
2010-10-22,64,52,39,45,34,27,100,60,26,30.19,30.10,29.95,10,10,5,12,2,16,0.00,0,,325
2010-10-23,71,52,33,41,37,34,100,71,29,30.32,30.28,30.24,10,10,7,13,2,,0.00,0,,220
2010-10-24,75,60,44,54,47,43,100,70,38,30.27,30.21,30.10,10,10,10,14,3,18,0.00,0,,211
2010-10-25,73,66,60,64,61,55,100,87,69,30.11,30.00,29.88,10,10,5,17,7,25,0.02,2,,191
2010-10-26,73,68,62,68,64,61,100,96,83,29.96,29.94,29.90,10,7,1,12,6,,0.11,8,,190
2010-10-27,78,78,73,70,69,68,88,77,69,30.00,30.00,29.99,10,10,10,16,14,25,0.00,6,,207
2010-10-28,,,,,,,,,,,,,,,,,,,,,,
2010-10-29,,,,,,,,,,,,,,,,,,,,,,
2010-10-30,,,,,,,,,,,,,,,,,,,,,,
2010-10-31,,,,,,,,,,,,,,,,,,,,,,